Time,TemperatureF,DewpointF,PressureIn,WindDirection,WindDirectionDegrees,WindSpeedMPH,WindSpeedGustMPH,Humidity,HourlyPrecipIn,Conditions,Clouds,dailyrainin,SolarRadiationWatts/m^2,SoftwareType,DateUTC
2013-06-27 00:01:00,66.9,48.7,30.02,North,-999,0.0,0.0,52,0.00,,,0.00,0.00,VWS V14.01,2013-06-27 06:01:00,
2013-06-27 00:06:00,66.8,48.6,30.02,North,-999,0.0,3.0,52,0.00,,,0.00,0.00,VWS V14.01,2013-06-27 06:06:00,
2013-06-27 00:11:00,66.5,48.9,30.02,North,-999,0.0,3.0,53,0.00,,,0.00,0.00,VWS V14.01,2013-06-27 06:11:00,
2013-06-27 00:15:00,66.3,48.7,30.02,North,-999,0.0,3.0,53,0.00,,,0.00,0.00,VWS V14.01,2013-06-27 06:15:00,
2013-06-27 00:20:00,66.3,49.2,30.03,North,-999,5.0,6.0,54,0.00,,,0.00,0.00,VWS V14.01,2013-06-27 06:20:00,
2013-06-27 00:25:00,66.1,49.0,30.03,North,-999,5.0,7.0,54,0.00,,,0.00,0.00,VWS V14.01,2013-06-27 06:25:00,
2013-06-27 00:30:00,66.0,48.9,30.03,North,-999,5.0,7.0,54,0.00,,,0.00,0.00,VWS V14.01,2013-06-27 06:30:00,
2013-06-27 00:35:00,66.2,49.6,30.03,North,-999,4.0,7.0,55,0.00,,,0.00,0.00,VWS V14.01,2013-06-27 06:35:00,
2013-06-27 00:40:00,66.2,49.6,30.03,North,-999,5.0,7.0,55,0.00,,,0.00,0.00,VWS V14.01,2013-06-27 06:40:00,
2013-06-27 00:45:00,66.1,50.0,30.03,North,-999,4.0,7.0,56,0.00,,,0.00,0.00,VWS V14.01,2013-06-27 06:45:00,
2013-06-27 00:50:00,65.2,49.1,30.03,North,-999,2.0,7.0,56,0.00,,,0.00,0.00,VWS V14.01,2013-06-27 06:50:00,
2013-06-27 00:55:00,64.3,49.2,30.03,North,-999,0.0,7.0,58,0.00,,,0.00,0.00,VWS V14.01,2013-06-27 06:55:00,
2013-06-27 01:00:00,63.3,49.2,30.03,North,-999,5.0,5.0,60,0.00,,,0.00,0.00,VWS V14.01,2013-06-27 07:00:00,
2013-06-27 01:05:00,62.5,49.3,30.03,North,-999,4.0,6.0,62,0.00,,,0.00,0.00,VWS V14.01,2013-06-27 07:05:00,
2013-06-27 01:10:00,62.9,50.1,30.03,North,-999,4.0,11.0,63,0.00,,,0.00,0.00,VWS V14.01,2013-06-27 07:10:00,
2013-06-27 01:15:00,63.3,50.5,30.04,North,-999,0.0,11.0,63,0.00,,,0.00,0.00,VWS V14.01,2013-06-27 07:15:00,
2013-06-27 01:20:00,63.4,50.6,30.04,North,-999,0.0,0.0,63,0.00,,,0.00,0.00,VWS V14.01,2013-06-27 07:20:00,
2013-06-27 01:25:00,63.3,50.9,30.04,North,-999,6.0,6.0,64,0.00,,,0.00,0.00,VWS V14.01,2013-06-27 07:25:00,
2013-06-27 01:30:00,63.7,50.9,30.04,North,-999,3.0,7.0,63,0.00,,,0.00,0.00,VWS V14.01,2013-06-27 07:30:00,
2013-06-27 01:35:00,63.7,50.9,30.04,North,-999,0.0,7.0,63,0.00,,,0.00,0.00,VWS V14.01,2013-06-27 07:35:00,
2013-06-27 01:40:00,63.7,50.9,30.05,North,-999,0.0,0.0,63,0.00,,,0.00,0.00,VWS V14.01,2013-06-27 07:40:00,
2013-06-27 01:45:00,63.2,50.4,30.05,North,-999,0.0,0.0,63,0.00,,,0.00,0.00,VWS V14.01,2013-06-27 07:45:00,
2013-06-27 01:50:00,62.9,50.5,30.05,North,-999,0.0,0.0,64,0.00,,,0.00,0.00,VWS V14.01,2013-06-27 07:50:00,
2013-06-27 01:55:00,63.1,51.2,30.05,North,-999,0.0,6.0,65,0.00,,,0.00,0.00,VWS V14.01,2013-06-27 07:55:00,
2013-06-27 02:00:00,63.0,51.1,30.05,North,-999,0.0,0.0,65,0.00,,,0.00,0.00,VWS V14.01,2013-06-27 08:00:00,
2013-06-27 02:05:00,63.2,50.8,30.05,North,-999,0.0,0.0,64,0.00,,,0.00,0.00,VWS V14.01,2013-06-27 08:05:00,
2013-06-27 02:10:00,63.4,51.0,30.05,North,-999,0.0,0.0,64,0.00,,,0.00,0.00,VWS V14.01,2013-06-27 08:10:00,
2013-06-27 02:15:00,63.4,50.6,30.05,North,-999,0.0,0.0,63,0.00,,,0.00,0.00,VWS V14.01,2013-06-27 08:15:00,
2013-06-27 02:20:00,63.4,50.6,30.05,North,-999,0.0,0.0,63,0.00,,,0.00,0.00,VWS V14.01,2013-06-27 08:20:00,
2013-06-27 02:25:00,63.4,50.6,30.05,North,-999,0.0,0.0,63,0.00,,,0.00,0.00,VWS V14.01,2013-06-27 08:25:00,
2013-06-27 02:30:00,63.4,50.6,30.05,North,-999,0.0,0.0,63,0.00,,,0.00,0.00,VWS V14.01,2013-06-27 08:30:00,
2013-06-27 02:35:00,62.9,50.1,30.05,North,-999,0.0,0.0,63,0.00,,,0.00,0.00,VWS V14.01,2013-06-27 08:35:00,
2013-06-27 02:40:00,62.5,49.8,30.05,North,-999,6.0,6.0,63,0.00,,,0.00,0.00,VWS V14.01,2013-06-27 08:40:00,
2013-06-27 02:45:00,62.9,50.5,30.05,North,-999,6.0,8.0,64,0.00,,,0.00,0.00,VWS V14.01,2013-06-27 08:45:00,
2013-06-27 02:50:00,63.2,50.0,30.05,North,-999,4.0,5.0,62,0.00,,,0.00,0.00,VWS V14.01,2013-06-27 08:50:00,
2013-06-27 02:55:00,61.9,50.0,30.05,North,-999,4.0,5.0,65,0.00,,,0.00,0.00,VWS V14.01,2013-06-27 08:55:00,
2013-06-27 03:00:00,60.6,49.6,30.05,North,-999,4.0,6.0,67,0.00,,,0.00,0.00,VWS V14.01,2013-06-27 09:00:00,
2013-06-27 03:05:00,60.8,49.8,30.05,North,-999,4.0,6.0,67,0.00,,,0.00,0.00,VWS V14.01,2013-06-27 09:05:00,
2013-06-27 03:10:00,61.1,50.1,30.05,North,-999,4.0,6.0,67,0.00,,,0.00,0.00,VWS V14.01,2013-06-27 09:10:00,
2013-06-27 03:15:00,61.3,50.3,30.05,North,-999,4.0,6.0,67,0.00,,,0.00,0.00,VWS V14.01,2013-06-27 09:15:00,
2013-06-27 03:20:00,61.1,50.1,30.05,North,-999,0.0,0.0,67,0.00,,,0.00,0.00,VWS V14.01,2013-06-27 09:20:00,
2013-06-27 03:25:00,61.2,50.2,30.05,North,-999,0.0,0.0,67,0.00,,,0.00,0.00,VWS V14.01,2013-06-27 09:25:00,
2013-06-27 03:30:00,60.3,50.1,30.05,North,-999,4.0,5.0,69,0.00,,,0.00,0.00,VWS V14.01,2013-06-27 09:30:00,
2013-06-27 03:35:00,59.9,49.7,30.04,North,-999,5.0,6.0,69,0.00,,,0.00,0.00,VWS V14.01,2013-06-27 09:35:00,
2013-06-27 03:40:00,60.2,50.8,30.05,North,-999,3.0,5.0,71,0.00,,,0.00,0.00,VWS V14.01,2013-06-27 09:40:00,
2013-06-27 03:45:00,60.2,50.8,30.05,North,-999,4.0,5.0,71,0.00,,,0.00,0.00,VWS V14.01,2013-06-27 09:45:00,
2013-06-27 03:50:00,59.6,51.0,30.05,North,-999,6.0,6.0,73,0.00,,,0.00,0.00,VWS V14.01,2013-06-27 09:50:00,
2013-06-27 03:55:00,59.0,50.7,30.05,North,-999,4.0,6.0,74,0.00,,,0.00,0.00,VWS V14.01,2013-06-27 09:55:00,
2013-06-27 04:00:00,58.7,50.8,30.05,North,-999,0.0,0.0,75,0.00,,,0.00,0.00,VWS V14.01,2013-06-27 10:00:00,
2013-06-27 04:05:00,58.6,50.7,30.05,North,-999,0.0,0.0,75,0.00,,,0.00,0.00,VWS V14.01,2013-06-27 10:05:00,
2013-06-27 04:10:00,58.6,51.1,30.05,North,-999,0.0,0.0,76,0.00,,,0.00,0.00,VWS V14.01,2013-06-27 10:10:00,
2013-06-27 04:15:00,58.3,51.1,30.05,North,-999,6.0,6.0,77,0.00,,,0.00,0.00,VWS V14.01,2013-06-27 10:15:00,
2013-06-27 04:20:00,58.4,51.2,30.05,North,-999,6.0,7.0,77,0.00,,,0.00,0.00,VWS V14.01,2013-06-27 10:20:00,
2013-06-27 04:25:00,58.5,51.0,30.05,North,-999,5.0,9.0,76,0.00,,,0.00,0.00,VWS V14.01,2013-06-27 10:25:00,
2013-06-27 04:30:00,58.2,50.7,30.05,North,-999,4.0,5.0,76,0.00,,,0.00,0.00,VWS V14.01,2013-06-27 10:30:00,
2013-06-27 04:35:00,58.1,50.9,30.05,North,-999,8.0,10.0,77,0.00,,,0.00,0.00,VWS V14.01,2013-06-27 10:35:00,
2013-06-27 04:40:00,58.3,50.8,30.05,North,-999,5.0,7.0,76,0.00,,,0.00,0.00,VWS V14.01,2013-06-27 10:40:00,
2013-06-27 04:45:00,58.2,50.7,30.05,North,-999,4.0,7.0,76,0.00,,,0.00,0.00,VWS V14.01,2013-06-27 10:45:00,
2013-06-27 04:50:00,57.7,50.5,30.05,North,-999,0.0,0.0,77,0.00,,,0.00,0.00,VWS V14.01,2013-06-27 10:50:00,
2013-06-27 04:55:00,57.3,50.8,30.06,North,-999,0.0,0.0,79,0.00,,,0.00,0.00,VWS V14.01,2013-06-27 10:55:00,
2013-06-27 05:00:00,57.4,51.0,30.06,North,-999,6.0,7.0,79,0.00,,,0.00,0.00,VWS V14.01,2013-06-27 11:00:00,
2013-06-27 05:05:00,57.6,50.8,30.06,North,-999,5.0,7.0,78,0.00,,,0.00,0.00,VWS V14.01,2013-06-27 11:05:00,
2013-06-27 05:10:00,57.0,50.6,30.07,North,-999,6.0,7.0,79,0.00,,,0.00,0.00,VWS V14.01,2013-06-27 11:10:00,
2013-06-27 05:15:00,56.2,50.1,30.07,North,-999,6.0,7.0,80,0.00,,,0.00,0.00,VWS V14.01,2013-06-27 11:15:00,
2013-06-27 05:20:00,55.7,50.0,30.06,North,-999,6.0,6.0,81,0.00,,,0.00,0.00,VWS V14.01,2013-06-27 11:20:00,
2013-06-27 05:25:00,56.3,50.2,30.06,North,-999,7.0,7.0,80,0.00,,,0.00,0.00,VWS V14.01,2013-06-27 11:25:00,
2013-06-27 05:30:00,56.6,50.2,30.06,North,-999,7.0,9.0,79,0.00,,,0.00,0.00,VWS V14.01,2013-06-27 11:30:00,
2013-06-27 05:35:00,56.8,50.4,30.06,North,-999,6.0,9.0,79,0.00,,,0.00,5.00,VWS V14.01,2013-06-27 11:35:00,
2013-06-27 05:40:00,56.8,49.7,30.06,North,-999,6.0,6.0,77,0.00,,,0.00,7.00,VWS V14.01,2013-06-27 11:40:00,
2013-06-27 05:45:00,56.2,49.4,30.06,North,-999,6.0,8.0,78,0.00,,,0.00,9.00,VWS V14.01,2013-06-27 11:45:00,
2013-06-27 05:50:00,55.8,49.4,30.07,North,-999,7.0,8.0,79,0.00,,,0.00,11.00,VWS V14.01,2013-06-27 11:50:00,
2013-06-27 05:55:00,55.8,49.4,30.07,North,-999,6.0,8.0,79,0.00,,,0.00,12.00,VWS V14.01,2013-06-27 11:55:00,
2013-06-27 06:00:00,56.0,49.9,30.07,North,-999,4.0,6.0,80,0.00,,,0.00,14.00,VWS V14.01,2013-06-27 12:00:00,
2013-06-27 06:05:00,56.2,50.1,30.07,North,-999,5.0,6.0,80,0.00,,,0.00,16.00,VWS V14.01,2013-06-27 12:05:00,
2013-06-27 06:10:00,56.6,50.2,30.07,North,-999,7.0,9.0,79,0.00,,,0.00,16.00,VWS V14.01,2013-06-27 12:10:00,
2013-06-27 06:15:00,58.0,50.5,30.08,North,-999,6.0,10.0,76,0.00,,,0.00,16.00,VWS V14.01,2013-06-27 12:15:00,
2013-06-27 06:20:00,58.3,50.8,30.08,North,-999,7.0,10.0,76,0.00,,,0.00,18.00,VWS V14.01,2013-06-27 12:20:00,
2013-06-27 06:25:00,58.3,50.8,30.08,North,-999,7.0,10.0,76,0.00,,,0.00,18.00,VWS V14.01,2013-06-27 12:25:00,
2013-06-27 06:30:00,58.6,50.7,30.08,North,-999,6.0,8.0,75,0.00,,,0.00,19.00,VWS V14.01,2013-06-27 12:30:00,
2013-06-27 06:35:00,58.9,51.0,30.08,North,-999,5.0,11.0,75,0.00,,,0.00,19.00,VWS V14.01,2013-06-27 12:35:00,
2013-06-27 06:40:00,59.4,50.8,30.08,North,-999,6.0,10.0,73,0.00,,,0.00,21.00,VWS V14.01,2013-06-27 12:40:00,
2013-06-27 06:45:00,59.7,50.7,30.08,North,-999,8.0,10.0,72,0.00,,,0.00,21.00,VWS V14.01,2013-06-27 12:45:00,
2013-06-27 06:50:00,60.1,50.7,30.08,North,-999,8.0,11.0,71,0.00,,,0.00,21.00,VWS V14.01,2013-06-27 12:50:00,
2013-06-27 06:55:00,60.4,51.0,30.08,North,-999,9.0,11.0,71,0.00,,,0.00,23.00,VWS V14.01,2013-06-27 12:55:00,
2013-06-27 07:00:00,60.6,50.8,30.08,North,-999,6.0,10.0,70,0.00,,,0.00,23.00,VWS V14.01,2013-06-27 13:00:00,
2013-06-27 07:04:00,61.1,51.6,30.08,North,-999,6.0,10.0,71,0.00,,,0.00,25.00,VWS V14.01,2013-06-27 13:04:00,
2013-06-27 07:09:00,61.5,51.2,30.08,North,-999,7.0,10.0,69,0.00,,,0.00,25.00,VWS V14.01,2013-06-27 13:09:00,
2013-06-27 07:14:00,62.0,51.7,30.08,North,-999,10.0,11.0,69,0.00,,,0.00,25.00,VWS V14.01,2013-06-27 13:14:00,
2013-06-27 07:19:00,62.3,51.6,30.08,North,-999,6.0,9.0,68,0.00,,,0.00,25.00,VWS V14.01,2013-06-27 13:19:00,
2013-06-27 07:24:00,62.6,51.5,30.08,North,-999,4.0,10.0,67,0.00,,,0.00,26.00,VWS V14.01,2013-06-27 13:24:00,
2013-06-27 07:29:00,63.0,51.9,30.09,North,-999,6.0,9.0,67,0.00,,,0.00,33.00,VWS V14.01,2013-06-27 13:29:00,
2013-06-27 07:34:00,63.2,51.7,30.09,North,-999,6.0,9.0,66,0.00,,,0.00,46.00,VWS V14.01,2013-06-27 13:34:00,
2013-06-27 07:39:00,63.6,52.0,30.09,North,-999,5.0,7.0,66,0.00,,,0.00,65.00,VWS V14.01,2013-06-27 13:39:00,
2013-06-27 07:44:00,64.0,52.0,30.09,North,-999,4.0,7.0,65,0.00,,,0.00,100.00,VWS V14.01,2013-06-27 13:44:00,
2013-06-27 07:49:00,64.5,52.5,30.09,North,-999,5.0,6.0,65,0.00,,,0.00,153.00,VWS V14.01,2013-06-27 13:49:00,
2013-06-27 07:54:00,64.9,52.5,30.09,North,-999,5.0,6.0,64,0.00,,,0.00,207.00,VWS V14.01,2013-06-27 13:54:00,
2013-06-27 07:59:00,65.2,52.3,30.09,North,-999,4.0,6.0,63,0.00,,,0.00,278.00,VWS V14.01,2013-06-27 13:59:00,
2013-06-27 08:04:00,65.6,52.2,30.09,North,-999,4.0,6.0,62,0.00,,,0.00,341.00,VWS V14.01,2013-06-27 14:04:00,
2013-06-27 08:09:00,66.1,53.2,30.09,North,-999,4.0,6.0,63,0.00,,,0.00,380.00,VWS V14.01,2013-06-27 14:09:00,
2013-06-27 08:14:00,66.6,53.2,30.09,North,-999,0.0,6.0,62,0.00,,,0.00,399.00,VWS V14.01,2013-06-27 14:14:00,
2013-06-27 08:19:00,67.0,52.7,30.09,North,-999,0.0,0.0,60,0.00,,,0.00,415.00,VWS V14.01,2013-06-27 14:19:00,
2013-06-27 08:24:00,67.4,53.0,30.09,North,-999,0.0,0.0,60,0.00,,,0.00,427.00,VWS V14.01,2013-06-27 14:24:00,
2013-06-27 08:29:00,68.0,53.6,30.09,North,-999,0.0,0.0,60,0.00,,,0.00,441.00,VWS V14.01,2013-06-27 14:29:00,
2013-06-27 08:34:00,68.9,53.1,30.09,North,-999,0.0,0.0,57,0.00,,,0.00,459.00,VWS V14.01,2013-06-27 14:34:00,
2013-06-27 08:39:00,70.0,53.6,30.09,North,-999,0.0,0.0,56,0.00,,,0.00,475.00,VWS V14.01,2013-06-27 14:39:00,
2013-06-27 08:44:00,71.0,54.0,30.09,North,-999,0.0,0.0,55,0.00,,,0.00,489.00,VWS V14.01,2013-06-27 14:44:00,
2013-06-27 08:49:00,71.6,55.1,30.09,North,-999,0.0,0.0,56,0.00,,,0.00,504.00,VWS V14.01,2013-06-27 14:49:00,
2013-06-27 08:54:00,71.6,54.1,30.09,North,-999,0.0,2.0,54,0.00,,,0.00,517.00,VWS V14.01,2013-06-27 14:54:00,
2013-06-27 08:59:00,71.2,55.2,30.09,North,-999,0.0,0.0,57,0.00,,,0.00,531.00,VWS V14.01,2013-06-27 14:59:00,
2013-06-27 09:04:00,71.6,54.1,30.09,North,-999,0.0,0.0,54,0.00,,,0.00,545.00,VWS V14.01,2013-06-27 15:04:00,
2013-06-27 09:09:00,72.0,54.5,30.09,North,-999,0.0,0.0,54,0.00,,,0.00,561.00,VWS V14.01,2013-06-27 15:09:00,
2013-06-27 09:14:00,72.5,53.9,30.09,North,-999,0.0,3.0,52,0.00,,,0.00,577.00,VWS V14.01,2013-06-27 15:14:00,
2013-06-27 09:19:00,72.8,54.7,30.09,North,-999,0.0,8.0,53,0.00,,,0.00,591.00,VWS V14.01,2013-06-27 15:19:00,
2013-06-27 09:24:00,73.0,54.9,30.09,North,-999,3.0,8.0,53,0.00,,,0.00,603.00,VWS V14.01,2013-06-27 15:24:00,
2013-06-27 09:29:00,72.8,54.2,30.09,North,-999,1.0,4.0,52,0.00,,,0.00,615.00,VWS V14.01,2013-06-27 15:29:00,
2013-06-27 09:34:00,72.8,54.2,30.09,North,-999,4.0,8.0,52,0.00,,,0.00,629.00,VWS V14.01,2013-06-27 15:34:00,
2013-06-27 09:39:00,72.9,52.6,30.09,North,-999,6.0,8.0,49,0.00,,,0.00,642.00,VWS V14.01,2013-06-27 15:39:00,
2013-06-27 09:44:00,73.1,53.4,30.09,North,-999,1.0,8.0,50,0.00,,,0.00,656.00,VWS V14.01,2013-06-27 15:44:00,
2013-06-27 09:49:00,73.3,54.6,30.08,North,-999,5.0,7.0,52,0.00,,,0.00,670.00,VWS V14.01,2013-06-27 15:49:00,
2013-06-27 09:54:00,73.5,54.8,30.09,North,-999,0.0,7.0,52,0.00,,,0.00,679.00,VWS V14.01,2013-06-27 15:54:00,
2013-06-27 09:59:00,74.2,53.8,30.08,North,-999,0.0,9.0,49,0.00,,,0.00,691.00,VWS V14.01,2013-06-27 15:59:00,
2013-06-27 10:04:00,74.5,54.1,30.08,North,-999,2.0,9.0,49,0.00,,,0.00,705.00,VWS V14.01,2013-06-27 16:04:00,
2013-06-27 10:09:00,74.6,53.6,30.08,North,-999,6.0,6.0,48,0.00,,,0.00,717.00,VWS V14.01,2013-06-27 16:09:00,
2013-06-27 10:14:00,75.0,54.6,30.08,North,-999,4.0,8.0,49,0.00,,,0.00,729.00,VWS V14.01,2013-06-27 16:14:00,
2013-06-27 10:19:00,75.1,54.1,30.08,North,-999,5.0,5.0,48,0.00,,,0.00,740.00,VWS V14.01,2013-06-27 16:19:00,
2013-06-27 10:24:00,75.7,54.1,30.08,North,-999,4.0,9.0,47,0.00,,,0.00,754.00,VWS V14.01,2013-06-27 16:24:00,
2013-06-27 10:29:00,75.6,53.4,30.08,North,-999,1.0,6.0,46,0.00,,,0.00,763.00,VWS V14.01,2013-06-27 16:29:00,
2013-06-27 10:34:00,75.8,53.0,30.07,North,-999,3.0,9.0,45,0.00,,,0.00,773.00,VWS V14.01,2013-06-27 16:34:00,
2013-06-27 10:39:00,76.2,52.7,30.08,North,-999,6.0,7.0,44,0.00,,,0.00,784.00,VWS V14.01,2013-06-27 16:39:00,
2013-06-27 10:44:00,76.5,52.4,30.08,North,-999,1.0,8.0,43,0.00,,,0.00,795.00,VWS V14.01,2013-06-27 16:44:00,
2013-06-27 10:49:00,77.3,51.8,30.08,North,-999,3.0,7.0,41,0.00,,,0.00,805.00,VWS V14.01,2013-06-27 16:49:00,
2013-06-27 10:54:00,77.9,51.7,30.08,North,-999,5.0,7.0,40,0.00,,,0.00,816.00,VWS V14.01,2013-06-27 16:54:00,
2013-06-27 10:59:00,78.3,51.3,30.08,North,-999,10.0,11.0,39,0.00,,,0.00,824.00,VWS V14.01,2013-06-27 16:59:00,
2013-06-27 11:04:00,78.6,51.6,30.08,North,-999,4.0,11.0,39,0.00,,,0.00,835.00,VWS V14.01,2013-06-27 17:04:00,
2013-06-27 11:09:00,79.1,51.3,30.08,North,-999,1.0,4.0,38,0.00,,,0.00,844.00,VWS V14.01,2013-06-27 17:09:00,
2013-06-27 11:14:00,80.1,51.5,30.08,North,-999,0.0,9.0,37,0.00,,,0.00,856.00,VWS V14.01,2013-06-27 17:14:00,
2013-06-27 11:19:00,80.2,51.6,30.08,North,-999,5.0,7.0,37,0.00,,,0.00,867.00,VWS V14.01,2013-06-27 17:19:00,
2013-06-27 11:24:00,80.3,50.2,30.08,North,-999,6.0,7.0,35,0.00,,,0.00,875.00,VWS V14.01,2013-06-27 17:24:00,
2013-06-27 11:29:00,80.7,49.8,30.08,North,-999,1.0,5.0,34,0.00,,,0.00,882.00,VWS V14.01,2013-06-27 17:29:00,
2013-06-27 11:34:00,81.6,50.5,30.08,North,-999,4.0,7.0,34,0.00,,,0.00,888.00,VWS V14.01,2013-06-27 17:34:00,
2013-06-27 11:39:00,81.9,50.8,30.07,North,-999,4.0,7.0,34,0.00,,,0.00,898.00,VWS V14.01,2013-06-27 17:39:00,
2013-06-27 11:44:00,82.0,50.9,30.07,North,-999,4.0,10.0,34,0.00,,,0.00,905.00,VWS V14.01,2013-06-27 17:44:00,
2013-06-27 11:49:00,82.2,49.4,30.07,North,-999,0.0,2.0,32,0.00,,,0.00,911.00,VWS V14.01,2013-06-27 17:49:00,
2013-06-27 11:54:00,82.1,49.3,30.07,North,-999,3.0,7.0,32,0.00,,,0.00,918.00,VWS V14.01,2013-06-27 17:54:00,
2013-06-27 11:59:00,82.9,50.0,30.07,North,-999,4.0,5.0,32,0.00,,,0.00,923.00,VWS V14.01,2013-06-27 17:59:00,
2013-06-27 12:04:00,83.3,50.4,30.07,North,-999,7.0,7.0,32,0.00,,,0.00,928.00,VWS V14.01,2013-06-27 18:04:00,
2013-06-27 12:09:00,83.1,49.4,30.06,North,-999,0.0,6.0,31,0.00,,,0.00,935.00,VWS V14.01,2013-06-27 18:09:00,
2013-06-27 12:14:00,83.2,49.5,30.06,North,-999,4.0,7.0,31,0.00,,,0.00,940.00,VWS V14.01,2013-06-27 18:14:00,
2013-06-27 12:19:00,83.6,49.8,30.06,North,-999,3.0,3.0,31,0.00,,,0.00,944.00,VWS V14.01,2013-06-27 18:19:00,
2013-06-27 12:24:00,83.5,49.7,30.07,North,-999,0.0,10.0,31,0.00,,,0.00,958.00,VWS V14.01,2013-06-27 18:24:00,
2013-06-27 12:29:00,83.7,49.9,30.06,North,-999,5.0,7.0,31,0.00,,,0.00,954.00,VWS V14.01,2013-06-27 18:29:00,
2013-06-27 12:34:00,83.9,50.1,30.07,North,-999,0.0,11.0,31,0.00,,,0.00,956.00,VWS V14.01,2013-06-27 18:34:00,
2013-06-27 12:39:00,84.6,49.8,30.07,North,-999,2.0,5.0,30,0.00,,,0.00,958.00,VWS V14.01,2013-06-27 18:39:00,
2013-06-27 12:44:00,85.1,51.1,30.07,North,-999,2.0,10.0,31,0.00,,,0.00,963.00,VWS V14.01,2013-06-27 18:44:00,
2013-06-27 12:49:00,84.9,50.0,30.07,North,-999,0.0,0.0,30,0.00,,,0.00,967.00,VWS V14.01,2013-06-27 18:49:00,
2013-06-27 12:54:00,85.4,50.5,30.06,North,-999,0.0,9.0,30,0.00,,,0.00,969.00,VWS V14.01,2013-06-27 18:54:00,
2013-06-27 12:59:00,86.1,51.1,30.06,North,-999,2.0,2.0,30,0.00,,,0.00,969.00,VWS V14.01,2013-06-27 18:59:00,
2013-06-27 13:04:00,86.1,51.1,30.06,North,-999,6.0,13.0,30,0.00,,,0.00,969.00,VWS V14.01,2013-06-27 19:04:00,
2013-06-27 13:09:00,86.0,51.0,30.06,North,-999,0.0,4.0,30,0.00,,,0.00,974.00,VWS V14.01,2013-06-27 19:09:00,
2013-06-27 13:14:00,86.1,50.2,30.06,North,-999,3.0,6.0,29,0.00,,,0.00,974.00,VWS V14.01,2013-06-27 19:14:00,
2013-06-27 13:19:00,86.3,50.3,30.06,North,-999,0.0,4.0,29,0.00,,,0.00,974.00,VWS V14.01,2013-06-27 19:19:00,
2013-06-27 13:24:00,86.3,50.3,30.06,North,-999,0.0,6.0,29,0.00,,,0.00,972.00,VWS V14.01,2013-06-27 19:24:00,
2013-06-27 13:29:00,86.6,50.6,30.06,North,-999,0.0,5.0,29,0.00,,,0.00,972.00,VWS V14.01,2013-06-27 19:29:00,
2013-06-27 13:34:00,86.7,51.6,30.06,North,-999,8.0,10.0,30,0.00,,,0.00,970.00,VWS V14.01,2013-06-27 19:34:00,
2013-06-27 13:39:00,86.0,51.0,30.06,North,-999,2.0,3.0,30,0.00,,,0.00,969.00,VWS V14.01,2013-06-27 19:39:00,
2013-06-27 13:44:00,86.2,51.2,30.05,North,-999,8.0,10.0,30,0.00,,,0.00,967.00,VWS V14.01,2013-06-27 19:44:00,
2013-06-27 13:48:00,85.8,50.8,30.05,North,-999,5.0,7.0,30,0.00,,,0.00,963.00,VWS V14.01,2013-06-27 19:48:00,
2013-06-27 13:53:00,85.9,50.9,30.05,North,-999,5.0,11.0,30,0.00,,,0.00,960.00,VWS V14.01,2013-06-27 19:53:00,
2013-06-27 13:58:00,85.8,50.8,30.05,North,-999,6.0,10.0,30,0.00,,,0.00,960.00,VWS V14.01,2013-06-27 19:58:00,
2013-06-27 14:03:00,85.5,50.6,30.05,North,-999,5.0,11.0,30,0.00,,,0.00,956.00,VWS V14.01,2013-06-27 20:03:00,
2013-06-27 14:08:00,86.2,51.2,30.05,North,-999,6.0,6.0,30,0.00,,,0.00,954.00,VWS V14.01,2013-06-27 20:08:00,
2013-06-27 14:13:00,86.3,50.3,30.05,North,-999,0.0,12.0,29,0.00,,,0.00,951.00,VWS V14.01,2013-06-27 20:13:00,
2013-06-27 14:18:00,86.4,50.4,30.04,North,-999,0.0,6.0,29,0.00,,,0.00,946.00,VWS V14.01,2013-06-27 20:18:00,
2013-06-27 14:23:00,86.7,50.7,30.04,North,-999,0.0,7.0,29,0.00,,,0.00,942.00,VWS V14.01,2013-06-27 20:23:00,
2013-06-27 14:28:00,86.8,49.8,30.04,North,-999,4.0,5.0,28,0.00,,,0.00,937.00,VWS V14.01,2013-06-27 20:28:00,
2013-06-27 14:34:00,86.9,50.8,30.04,North,-999,3.0,5.0,29,0.00,,,0.00,930.00,VWS V14.01,2013-06-27 20:34:00,
2013-06-27 14:39:00,87.4,50.3,30.04,North,-999,2.0,2.0,28,0.00,,,0.00,923.00,VWS V14.01,2013-06-27 20:39:00,
2013-06-27 14:44:00,87.5,50.4,30.04,North,-999,6.0,10.0,28,0.00,,,0.00,919.00,VWS V14.01,2013-06-27 20:44:00,
2013-06-27 14:49:00,87.3,49.3,30.04,North,-999,2.0,4.0,27,0.00,,,0.00,911.00,VWS V14.01,2013-06-27 20:49:00,
2013-06-27 14:54:00,87.7,51.5,30.04,North,-999,0.0,4.0,29,0.00,,,0.00,907.00,VWS V14.01,2013-06-27 20:54:00,
2013-06-27 14:59:00,88.9,51.6,30.04,North,-999,0.0,2.0,28,0.00,,,0.00,902.00,VWS V14.01,2013-06-27 20:59:00,
2013-06-27 15:04:00,89.2,49.9,30.04,North,-999,1.0,4.0,26,0.00,,,0.00,895.00,VWS V14.01,2013-06-27 21:04:00,
2013-06-27 15:09:00,88.8,50.5,30.04,North,-999,0.0,1.0,27,0.00,,,0.00,884.00,VWS V14.01,2013-06-27 21:09:00,
2013-06-27 15:14:00,88.5,50.3,30.04,North,-999,0.0,4.0,27,0.00,,,0.00,875.00,VWS V14.01,2013-06-27 21:14:00,
2013-06-27 15:19:00,88.4,51.2,30.04,North,-999,2.0,4.0,28,0.00,,,0.00,867.00,VWS V14.01,2013-06-27 21:19:00,
2013-06-27 15:24:00,88.9,51.6,30.04,North,-999,0.0,4.0,28,0.00,,,0.00,858.00,VWS V14.01,2013-06-27 21:24:00,
2013-06-27 15:29:00,88.6,51.4,30.04,North,-999,1.0,5.0,28,0.00,,,0.00,851.00,VWS V14.01,2013-06-27 21:29:00,
2013-06-27 15:34:00,88.3,51.1,30.03,North,-999,6.0,7.0,28,0.00,,,0.00,840.00,VWS V14.01,2013-06-27 21:34:00,
2013-06-27 15:39:00,88.3,51.1,30.03,North,-999,5.0,6.0,28,0.00,,,0.00,828.00,VWS V14.01,2013-06-27 21:39:00,
2013-06-27 15:44:00,88.6,51.4,30.04,North,-999,2.0,6.0,28,0.00,,,0.00,817.00,VWS V14.01,2013-06-27 21:44:00,
2013-06-27 15:49:00,88.7,51.4,30.04,North,-999,0.0,0.0,28,0.00,,,0.00,807.00,VWS V14.01,2013-06-27 21:49:00,
2013-06-27 15:54:00,89.0,51.7,30.04,North,-999,3.0,6.0,28,0.00,,,0.00,800.00,VWS V14.01,2013-06-27 21:54:00,
2013-06-27 15:59:00,88.8,50.5,30.04,North,-999,4.0,7.0,27,0.00,,,0.00,788.00,VWS V14.01,2013-06-27 21:59:00,
2013-06-27 16:04:00,88.4,52.1,30.04,North,-999,3.0,7.0,29,0.00,,,0.00,775.00,VWS V14.01,2013-06-27 22:04:00,
2013-06-27 16:09:00,88.5,51.3,30.04,North,-999,0.0,4.0,28,0.00,,,0.00,765.00,VWS V14.01,2013-06-27 22:09:00,
2013-06-27 16:14:00,88.6,51.4,30.04,North,-999,7.0,13.0,28,0.00,,,0.00,758.00,VWS V14.01,2013-06-27 22:14:00,
2013-06-27 16:19:00,88.6,51.4,30.04,North,-999,14.0,14.0,28,0.00,,,0.00,737.00,VWS V14.01,2013-06-27 22:19:00,
2013-06-27 16:24:00,88.4,52.1,30.04,North,-999,12.0,18.0,29,0.00,,,0.00,726.00,VWS V14.01,2013-06-27 22:24:00,
2013-06-27 16:29:00,88.4,53.1,30.04,North,-999,13.0,18.0,30,0.00,,,0.00,717.00,VWS V14.01,2013-06-27 22:29:00,
2013-06-27 16:34:00,87.8,52.5,30.04,North,-999,12.0,20.0,30,0.00,,,0.00,705.00,VWS V14.01,2013-06-27 22:34:00,
2013-06-27 16:39:00,87.7,53.3,30.04,North,-999,9.0,14.0,31,0.00,,,0.00,691.00,VWS V14.01,2013-06-27 22:39:00,
2013-06-27 16:44:00,87.4,53.1,30.05,North,-999,11.0,17.0,31,0.00,,,0.00,679.00,VWS V14.01,2013-06-27 22:44:00,
2013-06-27 16:50:00,87.2,53.8,30.04,North,-999,11.0,15.0,32,0.00,,,0.00,666.00,VWS V14.01,2013-06-27 22:50:00,
2013-06-27 16:55:00,87.0,53.6,30.05,North,-999,14.0,17.0,32,0.00,,,0.00,652.00,VWS V14.01,2013-06-27 22:55:00,
2013-06-27 17:00:00,86.7,54.2,30.05,North,-999,5.0,16.0,33,0.00,,,0.00,642.00,VWS V14.01,2013-06-27 23:00:00,
2013-06-27 17:05:00,86.7,54.2,30.05,North,-999,15.0,17.0,33,0.00,,,0.00,626.00,VWS V14.01,2013-06-27 23:05:00,
2013-06-27 17:10:00,87.0,52.7,30.05,North,-999,7.0,18.0,31,0.00,,,0.00,613.00,VWS V14.01,2013-06-27 23:10:00,
2013-06-27 17:15:00,87.0,52.7,30.05,North,-999,12.0,18.0,31,0.00,,,0.00,601.00,VWS V14.01,2013-06-27 23:15:00,
2013-06-27 17:20:00,86.4,54.7,30.05,North,-999,11.0,14.0,34,0.00,,,0.00,584.00,VWS V14.01,2013-06-27 23:20:00,
2013-06-27 17:25:00,86.8,52.6,30.05,North,-999,11.0,18.0,31,0.00,,,0.00,571.00,VWS V14.01,2013-06-27 23:25:00,
2013-06-27 17:30:00,86.6,52.4,30.05,North,-999,15.0,20.0,31,0.00,,,0.00,559.00,VWS V14.01,2013-06-27 23:30:00,
2013-06-27 17:35:00,86.7,52.5,30.05,North,-999,16.0,20.0,31,0.00,,,0.00,541.00,VWS V14.01,2013-06-27 23:35:00,
2013-06-27 17:40:00,86.6,52.4,30.05,North,-999,11.0,15.0,31,0.00,,,0.00,529.00,VWS V14.01,2013-06-27 23:40:00,
2013-06-27 17:45:00,86.7,53.3,30.05,North,-999,8.0,16.0,32,0.00,,,0.00,517.00,VWS V14.01,2013-06-27 23:45:00,
2013-06-27 17:50:00,86.6,52.4,30.05,North,-999,11.0,13.0,31,0.00,,,0.00,499.00,VWS V14.01,2013-06-27 23:50:00,
2013-06-27 17:55:00,86.7,53.3,30.05,North,-999,13.0,13.0,32,0.00,,,0.00,485.00,VWS V14.01,2013-06-27 23:55:00,
2013-06-27 18:00:00,86.9,53.5,30.05,North,-999,6.0,11.0,32,0.00,,,0.00,471.00,VWS V14.01,2013-06-28 00:00:00,
2013-06-27 18:05:00,86.8,52.6,30.05,North,-999,12.0,14.0,31,0.00,,,0.00,455.00,VWS V14.01,2013-06-28 00:05:00,
2013-06-27 18:10:00,86.5,54.8,30.05,North,-999,11.0,13.0,34,0.00,,,0.00,438.00,VWS V14.01,2013-06-28 00:10:00,
2013-06-27 18:16:00,86.2,53.8,30.05,North,-999,6.0,13.0,33,0.00,,,0.00,422.00,VWS V14.01,2013-06-28 00:16:00,
2013-06-27 18:21:00,86.1,54.5,30.05,North,-999,6.0,11.0,34,0.00,,,0.00,406.00,VWS V14.01,2013-06-28 00:21:00,
2013-06-27 18:26:00,86.4,53.9,30.05,North,-999,7.0,12.0,33,0.00,,,0.00,394.00,VWS V14.01,2013-06-28 00:26:00,
2013-06-27 18:31:00,86.6,54.9,30.06,North,-999,6.0,9.0,34,0.00,,,0.00,376.00,VWS V14.01,2013-06-28 00:31:00,
2013-06-27 18:36:00,86.5,52.3,30.06,North,-999,4.0,14.0,31,0.00,,,0.00,360.00,VWS V14.01,2013-06-28 00:36:00,
2013-06-27 18:41:00,86.5,53.2,30.05,North,-999,6.0,14.0,32,0.00,,,0.00,346.00,VWS V14.01,2013-06-28 00:41:00,
2013-06-27 18:46:00,86.5,52.3,30.05,North,-999,13.0,15.0,31,0.00,,,0.00,329.00,VWS V14.01,2013-06-28 00:46:00,
2013-06-27 18:51:00,86.2,52.9,30.05,North,-999,3.0,15.0,32,0.00,,,0.00,313.00,VWS V14.01,2013-06-28 00:51:00,
2013-06-27 18:56:00,86.0,53.6,30.05,North,-999,8.0,16.0,33,0.00,,,0.00,301.00,VWS V14.01,2013-06-28 00:56:00,
2013-06-27 19:01:00,85.8,52.6,30.05,North,-999,10.0,15.0,32,0.00,,,0.00,287.00,VWS V14.01,2013-06-28 01:01:00,
2013-06-27 19:06:00,85.6,53.2,30.05,North,-999,9.0,17.0,33,0.00,,,0.00,265.00,VWS V14.01,2013-06-28 01:06:00,
2013-06-27 19:11:00,85.1,53.6,30.06,North,-999,5.0,15.0,34,0.00,,,0.00,250.00,VWS V14.01,2013-06-28 01:11:00,
2013-06-27 19:16:00,84.9,52.6,30.06,North,-999,13.0,17.0,33,0.00,,,0.00,232.00,VWS V14.01,2013-06-28 01:16:00,
2013-06-27 19:21:00,84.7,53.3,30.06,North,-999,6.0,14.0,34,0.00,,,0.00,214.00,VWS V14.01,2013-06-28 01:21:00,
2013-06-27 19:26:00,84.6,53.2,30.06,North,-999,5.0,14.0,34,0.00,,,0.00,195.00,VWS V14.01,2013-06-28 01:26:00,
2013-06-27 19:31:00,84.6,53.2,30.06,North,-999,10.0,11.0,34,0.00,,,0.00,178.00,VWS V14.01,2013-06-28 01:31:00,
2013-06-27 19:36:00,84.3,52.9,30.07,North,-999,10.0,12.0,34,0.00,,,0.00,160.00,VWS V14.01,2013-06-28 01:36:00,
2013-06-27 19:41:00,84.2,53.6,30.07,North,-999,8.0,9.0,35,0.00,,,0.00,142.00,VWS V14.01,2013-06-28 01:41:00,
2013-06-27 19:46:00,83.9,52.6,30.07,North,-999,5.0,14.0,34,0.00,,,0.00,125.00,VWS V14.01,2013-06-28 01:46:00,
2013-06-27 19:51:00,84.1,51.9,30.07,North,-999,6.0,11.0,33,0.00,,,0.00,111.00,VWS V14.01,2013-06-28 01:51:00,
2013-06-27 19:56:00,83.9,51.8,30.07,North,-999,5.0,14.0,33,0.00,,,0.00,95.00,VWS V14.01,2013-06-28 01:56:00,
2013-06-27 20:01:00,83.5,52.2,30.07,North,-999,4.0,9.0,34,0.00,,,0.00,81.00,VWS V14.01,2013-06-28 02:01:00,
2013-06-27 20:06:00,83.4,52.1,30.07,North,-999,6.0,11.0,34,0.00,,,0.00,67.00,VWS V14.01,2013-06-28 02:06:00,
2013-06-27 20:11:00,83.1,52.6,30.07,North,-999,6.0,9.0,35,0.00,,,0.00,54.00,VWS V14.01,2013-06-28 02:11:00,
2013-06-27 20:16:00,83.0,52.6,30.07,North,-999,5.0,10.0,35,0.00,,,0.00,44.00,VWS V14.01,2013-06-28 02:16:00,
2013-06-27 20:21:00,82.9,52.5,30.07,North,-999,4.0,8.0,35,0.00,,,0.00,33.00,VWS V14.01,2013-06-28 02:21:00,
2013-06-27 20:26:00,82.7,52.3,30.07,North,-999,5.0,8.0,35,0.00,,,0.00,25.00,VWS V14.01,2013-06-28 02:26:00,
2013-06-27 20:31:00,82.5,51.3,30.07,North,-999,6.0,9.0,34,0.00,,,0.00,19.00,VWS V14.01,2013-06-28 02:31:00,
2013-06-27 20:36:00,82.3,51.2,30.07,North,-999,3.0,9.0,34,0.00,,,0.00,16.00,VWS V14.01,2013-06-28 02:36:00,
2013-06-27 20:41:00,81.6,52.1,30.07,North,-999,6.0,6.0,36,0.00,,,0.00,14.00,VWS V14.01,2013-06-28 02:41:00,
2013-06-27 20:46:00,80.5,52.6,30.07,North,-999,4.0,7.0,38,0.00,,,0.00,12.00,VWS V14.01,2013-06-28 02:46:00,
2013-06-27 20:51:00,79.5,52.4,30.07,North,-999,4.0,6.0,39,0.00,,,0.00,9.00,VWS V14.01,2013-06-28 02:51:00,
2013-06-27 20:56:00,78.6,52.3,30.07,North,-999,3.0,6.0,40,0.00,,,0.00,7.00,VWS V14.01,2013-06-28 02:56:00,
2013-06-27 21:01:00,78.0,52.4,30.08,North,-999,2.0,7.0,41,0.00,,,0.00,5.00,VWS V14.01,2013-06-28 03:01:00,
2013-06-27 21:06:00,77.5,52.0,30.08,North,-999,0.0,7.0,41,0.00,,,0.00,0.00,VWS V14.01,2013-06-28 03:06:00,
2013-06-27 21:11:00,77.1,51.6,30.08,North,-999,0.0,2.0,41,0.00,,,0.00,0.00,VWS V14.01,2013-06-28 03:11:00,
2013-06-27 21:17:00,77.1,50.9,30.08,North,-999,4.0,5.0,40,0.00,,,0.00,0.00,VWS V14.01,2013-06-28 03:17:00,
2013-06-27 21:22:00,77.3,51.8,30.08,North,-999,0.0,6.0,41,0.00,,,0.00,0.00,VWS V14.01,2013-06-28 03:22:00,
2013-06-27 21:27:00,77.3,51.1,30.08,North,-999,0.0,6.0,40,0.00,,,0.00,0.00,VWS V14.01,2013-06-28 03:27:00,
2013-06-27 21:32:00,77.5,50.6,30.09,North,-999,0.0,3.0,39,0.00,,,0.00,0.00,VWS V14.01,2013-06-28 03:32:00,
2013-06-27 21:37:00,77.8,50.2,30.09,North,-999,5.0,5.0,38,0.00,,,0.00,0.00,VWS V14.01,2013-06-28 03:37:00,
2013-06-27 21:42:00,77.6,50.7,30.09,North,-999,0.0,4.0,39,0.00,,,0.00,0.00,VWS V14.01,2013-06-28 03:42:00,
2013-06-27 21:47:00,77.3,50.4,30.10,North,-999,2.0,5.0,39,0.00,,,0.00,0.00,VWS V14.01,2013-06-28 03:47:00,
2013-06-27 21:52:00,77.3,50.4,30.10,North,-999,2.0,5.0,39,0.00,,,0.00,0.00,VWS V14.01,2013-06-28 03:52:00,
2013-06-27 21:57:00,77.6,50.0,30.10,North,-999,0.0,6.0,38,0.00,,,0.00,0.00,VWS V14.01,2013-06-28 03:57:00,
2013-06-27 22:01:00,77.7,50.1,30.10,North,-999,0.0,2.0,38,0.00,,,0.00,0.00,VWS V14.01,2013-06-28 04:01:00,
2013-06-27 22:06:00,77.4,50.5,30.10,North,-999,0.0,2.0,39,0.00,,,0.00,0.00,VWS V14.01,2013-06-28 04:06:00,
2013-06-27 22:11:00,77.2,50.3,30.11,North,-999,0.0,0.0,39,0.00,,,0.00,0.00,VWS V14.01,2013-06-28 04:11:00,
2013-06-27 22:16:00,76.9,50.8,30.11,North,-999,0.0,0.0,40,0.00,,,0.00,0.00,VWS V14.01,2013-06-28 04:16:00,
2013-06-27 22:21:00,76.5,51.1,30.11,North,-999,0.0,0.0,41,0.00,,,0.00,0.00,VWS V14.01,2013-06-28 04:21:00,
2013-06-27 22:26:00,76.4,51.0,30.11,North,-999,0.0,0.0,41,0.00,,,0.00,0.00,VWS V14.01,2013-06-28 04:26:00,
2013-06-27 22:31:00,76.5,51.7,30.11,North,-999,0.0,0.0,42,0.00,,,0.00,0.00,VWS V14.01,2013-06-28 04:31:00,
2013-06-27 22:36:00,76.6,51.2,30.11,North,-999,0.0,0.0,41,0.00,,,0.00,0.00,VWS V14.01,2013-06-28 04:36:00,
2013-06-27 22:41:00,76.2,51.5,30.11,North,-999,0.0,0.0,42,0.00,,,0.00,0.00,VWS V14.01,2013-06-28 04:41:00,
2013-06-27 22:46:00,72.6,50.1,30.12,North,-999,6.0,6.0,45,0.00,,,0.00,0.00,VWS V14.01,2013-06-28 04:46:00,
2013-06-27 22:51:00,71.1,51.0,30.11,North,-999,6.0,7.0,49,0.00,,,0.00,0.00,VWS V14.01,2013-06-28 04:51:00,
2013-06-27 22:56:00,72.0,50.7,30.11,North,-999,3.0,7.0,47,0.00,,,0.00,0.00,VWS V14.01,2013-06-28 04:56:00,
2013-06-27 23:01:00,72.3,50.4,30.12,North,-999,0.0,4.0,46,0.00,,,0.00,0.00,VWS V14.01,2013-06-28 05:01:00,
2013-06-27 23:06:00,71.8,51.1,30.12,North,-999,3.0,4.0,48,0.00,,,0.00,0.00,VWS V14.01,2013-06-28 05:06:00,
2013-06-27 23:11:00,70.0,51.1,30.12,North,-999,3.0,4.0,51,0.00,,,0.00,0.00,VWS V14.01,2013-06-28 05:11:00,
2013-06-27 23:16:00,69.6,51.2,30.12,North,-999,0.0,5.0,52,0.00,,,0.00,0.00,VWS V14.01,2013-06-28 05:16:00,
2013-06-27 23:21:00,70.4,50.9,30.12,North,-999,0.0,0.0,50,0.00,,,0.00,0.00,VWS V14.01,2013-06-28 05:21:00,
2013-06-27 23:26:00,70.4,50.9,30.12,North,-999,5.0,5.0,50,0.00,,,0.00,0.00,VWS V14.01,2013-06-28 05:26:00,
2013-06-27 23:31:00,69.1,51.3,30.12,North,-999,4.0,6.0,53,0.00,,,0.00,0.00,VWS V14.01,2013-06-28 05:31:00,
2013-06-27 23:36:00,69.0,51.2,30.12,North,-999,0.0,6.0,53,0.00,,,0.00,0.00,VWS V14.01,2013-06-28 05:36:00,
2013-06-27 23:41:00,68.3,50.5,30.12,North,-999,0.0,0.0,53,0.00,,,0.00,0.00,VWS V14.01,2013-06-28 05:41:00,
2013-06-27 23:46:00,67.6,50.4,30.12,North,-999,0.0,0.0,54,0.00,,,0.00,0.00,VWS V14.01,2013-06-28 05:46:00,
2013-06-27 23:51:00,67.4,50.7,30.12,North,-999,0.0,0.0,55,0.00,,,0.00,0.00,VWS V14.01,2013-06-28 05:51:00,
2013-06-27 23:56:00,68.0,50.8,30.12,North,-999,0.0,0.0,54,0.00,,,0.00,0.00,VWS V14.01,2013-06-28 05:56:00,